Jackson, TN

9:13 PM CST on November 18, 2019 (GMT -0600)
McKellar-Sipes Regional

Weather History for KMKL - July, 2019

Change the Weather History Date:

Monday, July 29, 2019

  Actual Average Record
Temperature  
Mean Temperature 79 °F 80 °F  
Max Temperature 90 °F 91 °F 105 °F (1952)
Min Temperature 67 °F 68 °F 56 °F (1994)
Degree Days  
Heating Degree Days 0 0  
Month to date heating degree days 0 0  
Since 1 June heating degree days 1 2  
Since 1 July heating degree days 0 0  
Cooling Degree Days 14 14  
Month to date cooling degree days 426 426  
Year to date cooling degree days 1007 980  
Since 1 June cooling degree days 747 765  
Growing Degree Days 30 (Base 50)    
Moisture  
Dew Point 71 °F    
Average Humidity 76    
Maximum Humidity 100    
Minimum Humidity 52    
Precipitation  
Precipitation 0.63 in 0.13 in 2.01 in (2001)
Month to date precipitation 10.50 4.23  
Year to date precipitation 43.32 32.61  
Sea Level Pressure  
Sea Level Pressure 30.01 in    
Wind  
Wind Speed 6 mph (SW)    
Max Wind Speed 23 mph    
Max Gust Speed 30 mph    
Visibility 8 miles    
Events Rain , Thunderstorm    
T = Trace of Precipitation, MM = Missing Value Source: NWS Daily Summary

Daily Weather History Graph

Daily Weather History Graph

Search for Another Location

Airport or City:

Astronomy

Jul. 29, 2019 Rise Set
Actual Time 6:01 AM CDT 8:02 PM CDT
Civil Twilight 5:33 AM CDT 8:30 PM CDT
Nautical Twilight 4:58 AM CDT 9:05 PM CDT
Astronomical Twilight 4:21 AM CDT 9:41 PM CDT
Moon 3:15 AM CDT (7/29) 6:03 PM CDT (7/29)
Length of Visible Light 14h 57m
Length of Day
14h 01m
Waning Crescent, 8% of the Moon is Illuminated
Jul 29
Waning Crescent
Jul 31
New
Aug 7
First Quarter
Aug 15
Full
Aug 23
Last Quarter

Hourly Weather History & Observations

Time (CDT) Temp. Heat Index Dew Point Humidity Pressure Visibility Wind Dir Wind Speed Gust Speed Precip Events Conditions
7:53 AM 75.0 °F - 70.0 °F 84% 30.07 in 10.0 mi South 5.8 mph - N/A   Clear
8:53 AM 80.1 °F 83.6 °F 71.1 °F 74% 30.08 in 10.0 mi SW 8.1 mph - N/A   Clear
9:53 AM 82.9 °F 88.0 °F 72.0 °F 69% 30.06 in 10.0 mi SW 9.2 mph - N/A   Clear
10:53 AM 87.1 °F 92.8 °F 71.1 °F 59% 30.05 in 10.0 mi SW 9.2 mph 18.4 mph N/A   Clear
11:53 AM 88.0 °F 92.9 °F 70.0 °F 55% 30.05 in 10.0 mi SSW 10.4 mph - N/A   Clear
12:53 PM 88.0 °F 92.1 °F 69.1 °F 53% 30.03 in 10.0 mi South 12.7 mph 18.4 mph N/A   Clear
1:53 PM 88.0 °F 92.1 °F 69.1 °F 53% 30.01 in 10.0 mi SSW 10.4 mph - N/A   Clear
2:53 PM 89.1 °F 94.1 °F 70.0 °F 53% 29.99 in 10.0 mi SSW 10.4 mph - N/A   Clear
3:53 PM 90.0 °F 96.4 °F 71.1 °F 54% 29.98 in 10.0 mi SSW 10.4 mph - N/A   Clear
4:53 PM 84.0 °F 89.0 °F 71.1 °F 65% 29.97 in 10.0 mi South 5.8 mph - N/A   Clear
5:53 PM 81.0 °F 85.2 °F 72.0 °F 74% 29.96 in 10.0 mi South 3.5 mph - N/A Thunderstorm Clear
6:09 PM 80.1 °F 84.5 °F 73.9 °F 81% 29.98 in 10.0 mi SW 3.5 mph - N/A   Clear
6:27 PM 75.0 °F - 71.1 °F 87% 30.00 in 10.0 mi NW 19.6 mph 29.9 mph 0.00 in Rain , Thunderstorm Light Thunderstorms and Rain
6:42 PM 73.0 °F - 71.1 °F 93% 30.00 in 10.0 mi NNW 11.5 mph - 0.00 in Rain Light Rain
6:53 PM 73.0 °F - 71.1 °F 93% 29.99 in 10.0 mi NNW 11.5 mph 23.0 mph 0.01 in Rain Light Rain
6:58 PM 72.0 °F - 71.1 °F 97% 30.00 in 10.0 mi NNW 9.2 mph - 0.00 in Rain , Thunderstorm Light Rain
7:08 PM 72.0 °F - 71.1 °F 97% 30.01 in 1.8 mi NW 3.5 mph - 0.06 in Rain , Thunderstorm Heavy Rain
7:24 PM 72.0 °F - 71.1 °F 97% 30.01 in 2.5 mi WSW 3.5 mph - 0.12 in Rain , Thunderstorm Rain
7:41 PM 72.0 °F - 72.0 °F 100% 30.02 in 8.0 mi SW 6.9 mph - 0.15 in Rain , Thunderstorm Light Rain
7:48 PM 71.6 °F - 71.6 °F 100% 30.02 in 2.0 mi West 5.8 mph - 0.26 in Rain Heavy Rain
7:51 PM 71.6 °F - 71.6 °F 100% 30.02 in 1.0 mi WNW 8.1 mph - 0.37 in Rain Heavy Rain
7:53 PM 72.0 °F - 71.1 °F 97% 30.01 in 0.8 mi NW 5.8 mph - 0.43 in Rain Heavy Rain
7:59 PM 72.0 °F - 71.1 °F 97% 30.02 in 1.0 mi NNW 3.5 mph - 0.05 in Rain , Thunderstorm Heavy Rain
8:07 PM 72.0 °F - 71.1 °F 97% 30.02 in 3.0 mi Calm Calm - 0.09 in Rain , Thunderstorm Heavy Rain
8:16 PM 72.0 °F - 71.1 °F 97% 30.02 in 4.0 mi East 5.8 mph - 0.12 in Rain Rain
8:53 PM 72.0 °F - 71.1 °F 97% 30.02 in 10.0 mi South 6.9 mph - 0.17 in Rain Light Rain
9:01 PM 72.0 °F - 71.1 °F 97% 30.03 in 10.0 mi SSW 4.6 mph - 0.00 in Rain Light Rain
9:53 PM 72.0 °F - 71.1 °F 97% 30.00 in 10.0 mi SSE 4.6 mph - 0.02 in   Scattered Clouds
10:53 PM 72.0 °F - 71.1 °F 97% 29.99 in 10.0 mi Calm Calm - N/A   Clear
11:53 PM 72.0 °F - 70.0 °F 93% 30.00 in 10.0 mi WSW 4.6 mph - N/A   Scattered Clouds